Zurück zum Katalog

STARLINK-34894

AktivKommunikationVLEO
NORAD 65753·PAYLOAD·🇺🇸 United States

Gestartet Sep 25, 2025 von Cape Canaveral Space Force Station

Loading…

Nächste Überflüge (nächste 24 Stunden)

TLE

AktuellSource: CelesTrak SupGP

Epoche: Sep 14, 2026, 21:21 UTC

1 65753C 25216V   26257.89006944 -.00049650  00000+0 -14654-2 0  2578
2 65753  53.1570 172.1714 0001292 103.4362  49.3729 15.34448282    11

Verfolge STARLINK-34894 in Echtzeit mit AllMySat

Download on the App Store